EW7994 6mi Mitkof highway Petersburg CWOPAK US current weather conditions

sailwx.info

Wind from 090

Air temperature 15.0° C
Dewpoint 7.5° C

Last reported at 2019-Jul-16 23:45 UTC.
Time now 2019-Jul-17 00:22 UTC

Location: N 56°42' W 132°56'.
View on Google Maps.

See reports from other nearby stations

  
Tides and Currents Weather Stations Pressure Air Temp Water Temp Dewpoint Dewpoint Depression Visibility Wind Speed Wind Dir Waves Ship Positions
date/time (UTC)wind fromknots sea level pressurealtimeterstation pressurevisibilityair tempwater tempwave heightnotes
2019-Jul-16 23:45 090 15.0
2019-Jul-16 23:40 090 15.0
2019-Jul-16 23:35 090 15.0
2019-Jul-16 23:30 090 15.0
2019-Jul-16 23:25 090 15.6
2019-Jul-16 23:20 090 0 gusting 1 15.6
2019-Jul-16 23:15 118 15.6
2019-Jul-16 23:10 315 15.6
2019-Jul-16 23:05 315 15.6
2019-Jul-16 23:00 315 16.1
2019-Jul-16 22:55 315 15.6
2019-Jul-16 22:50 315 15.6
2019-Jul-16 22:45 315 15.6
2019-Jul-16 22:40 315 15.0
2019-Jul-16 16:20 112 12.8
2019-Jul-16 16:15 112 12.8
2019-Jul-16 16:10 112 12.8
2019-Jul-16 16:05 112 13.3
2019-Jul-16 16:00 112 13.3
2019-Jul-16 15:55 112 12.8
2019-Jul-16 15:50 112 13.3
2019-Jul-16 15:45 112 12.8
2019-Jul-16 15:20 112 12.2
2019-Jul-16 15:15 112 12.2
2019-Jul-16 15:10 112 12.8
2019-Jul-16 14:35 112 12.2
2019-Jul-16 14:30 112 12.2
2019-Jul-16 14:25 112 12.2
2019-Jul-16 14:20 112 12.8
2019-Jul-16 14:15 112 12.2
2019-Jul-16 14:10 112 12.8
2019-Jul-16 14:05 112 12.2
2019-Jul-16 14:00 112 12.8
2019-Jul-16 13:55 112 12.8
2019-Jul-16 13:50 112 12.8
2019-Jul-16 08:10 180 13.9
2019-Jul-16 08:05 180 13.9
2019-Jul-16 07:55 180 14.4
2019-Jul-16 07:50 180 14.4
2019-Jul-16 07:45 180 13.9
2019-Jul-16 07:40 180 13.9
2019-Jul-16 07:35 180 13.9
2019-Jul-16 07:30 180 14.4
2019-Jul-16 07:25 180 13.9
2019-Jul-16 07:20 180 14.4
2019-Jul-16 07:15 180 13.9
2019-Jul-16 07:10 180 14.4
2019-Jul-16 07:05 180 13.9
2019-Jul-16 07:00 180 14.4
2019-Jul-16 06:55 180 13.9
2019-Jul-16 06:50 180 13.9
2019-Jul-16 06:45 180 14.4
2019-Jul-16 06:40 180 13.9
2019-Jul-16 06:35 180 13.9
2019-Jul-16 06:30 180 13.9
2019-Jul-16 06:25 180 13.9
2019-Jul-16 06:20 180 14.4
2019-Jul-16 06:15 180 14.4
2019-Jul-16 06:05 180 14.4
2019-Jul-16 06:00 180 13.9
2019-Jul-16 05:55 180 13.9
2019-Jul-16 05:50 180 14.4
2019-Jul-16 05:45 180 13.9
2019-Jul-16 05:40 180 13.9
2019-Jul-16 05:35 180 13.9
2019-Jul-16 05:30 180 14.4
2019-Jul-16 05:25 180 13.9
2019-Jul-16 05:20 112 13.9
2019-Jul-16 05:15 112 13.9
2019-Jul-16 05:10 112 14.4
2019-Jul-16 05:05 127 2 gusting 3 15.6
2019-Jul-16 05:00 127 2 gusting 3 15.6
2019-Jul-16 04:55 112 2 gusting 3 15.0
2019-Jul-16 04:50 126 2 gusting 3 15.6
2019-Jul-16 04:45 112 2 gusting 3 15.0
2019-Jul-16 04:40 112 2 gusting 3 15.0
2019-Jul-16 04:35 130 15.6
2019-Jul-16 04:30 135 0 gusting 2 15.0
2019-Jul-16 04:25 112 15.6
2019-Jul-16 04:20 112 15.6
2019-Jul-16 04:15 135 15.0
2019-Jul-16 04:10 135 15.6
2019-Jul-16 04:05 121 16.1
2019-Jul-16 04:00 112 15.6
2019-Jul-16 03:55 112 15.6
2019-Jul-16 03:50 112 16.1
2019-Jul-16 03:45 112 16.1
2019-Jul-16 03:40 112 15.6
2019-Jul-16 03:35 112 16.1
2019-Jul-16 03:30 112 16.1
2019-Jul-16 03:25 112 16.1
2019-Jul-16 03:20 112 16.1
2019-Jul-16 03:10 112 16.7
2019-Jul-16 03:05 112 17.2
2019-Jul-16 03:00 112 16.7
2019-Jul-16 02:55 112 17.2
2019-Jul-16 02:50 112 16.7
2019-Jul-16 02:45 112 16.7
2019-Jul-16 02:40 112 17.2
2019-Jul-16 02:35 112 17.2
2019-Jul-16 02:30 112 17.2
2019-Jul-16 02:25 112 17.8
2019-Jul-16 02:20 112 17.8
2019-Jul-16 02:15 112 17.8
2019-Jul-16 02:10 112 17.8
2019-Jul-16 02:05 116 2 gusting 3 17.8
2019-Jul-16 02:00 154 1 gusting 2 16.7
2019-Jul-16 01:55 137 1 gusting 3 16.7
2019-Jul-16 01:50 320 17.2
2019-Jul-16 01:45 197 16.7
2019-Jul-16 01:40 110 17.2
2019-Jul-16 01:35 105 0 gusting 1 16.7
2019-Jul-16 01:30 112 16.7
2019-Jul-16 01:25 135 16.7
2019-Jul-16 01:20 109 16.7
2019-Jul-16 01:15 135 16.1
2019-Jul-16 01:10 135 16.1
2019-Jul-16 01:05 119 16.1
2019-Jul-16 01:00 118 0 gusting 3 16.1
2019-Jul-16 00:55 156 0 gusting 2 16.1
2019-Jul-16 00:50 121 0 gusting 2 16.1
2019-Jul-16 00:45 108 0 gusting 2 16.1
2019-Jul-16 00:40 112 16.1
2019-Jul-16 00:35 120 0 gusting 2 16.7
2019-Jul-16 00:30 151 17.2
2019-Jul-16 00:25 158 0 gusting 2 17.2
2019-Jul-16 00:20 112 1 gusting 4 17.8
2019-Jul-16 00:15 119 2 gusting 5 17.2
2019-Jul-16 00:10 120 2 gusting 5 17.8
2019-Jul-16 00:05 174 17.8
2019-Jul-16 00:00 148 1 gusting 3 17.8
2019-Jul-15 23:55 187 1 gusting 2 17.8
2019-Jul-15 23:50 126 17.8
2019-Jul-15 23:45 112 17.8
2019-Jul-15 23:40 045 18.9
2019-Jul-15 23:35 202 19.4
2019-Jul-15 23:30 067 19.4
2019-Jul-15 23:25 337 18.9
2019-Jul-15 23:20 360 18.9
2019-Jul-15 23:15 135 18.3
2019-Jul-15 23:10 135 17.8
2019-Jul-15 23:05 090 17.2
2019-Jul-15 23:00 090 17.2
2019-Jul-15 22:55 090 17.2
2019-Jul-15 22:50 202 17.2
2019-Jul-15 22:45 202 16.7
2019-Jul-15 22:40 202 16.7
2019-Jul-15 22:35 202 16.7
2019-Jul-15 22:30 202 16.1
2019-Jul-15 22:25 180 16.1
2019-Jul-15 22:20 202 16.1
2019-Jul-15 22:15 170 0 gusting 1 15.6
2019-Jul-15 21:50 112 15.0
2019-Jul-15 21:45 112 15.0
2019-Jul-15 21:40 112 0 gusting 0 15.0
2019-Jul-15 21:35 172 15.6
2019-Jul-15 21:30 112 0 gusting 1 15.6
2019-Jul-15 21:25 162 0 gusting 2 15.6
2019-Jul-15 21:20 180 16.1
2019-Jul-15 20:35 337 15.6
2019-Jul-15 20:30 337 15.6
2019-Jul-15 20:25 337 15.6
2019-Jul-15 20:20 337 15.6
2019-Jul-15 20:15 337 15.6
2019-Jul-15 20:10 337 15.6
2019-Jul-15 20:05 337 16.1
2019-Jul-15 20:00 337 16.1
2019-Jul-15 19:55 310 16.1
2019-Jul-15 19:50 315 0 gusting 1 16.1
2019-Jul-15 19:45 317 16.1
2019-Jul-15 19:40 261 16.1
2019-Jul-15 19:35 282 15.6
2019-Jul-15 19:30 341 15.6
2019-Jul-15 19:25 112 15.6
2019-Jul-15 19:20 112 15.6
2019-Jul-15 19:15 112 15.6
2019-Jul-15 19:10 112 15.6
2019-Jul-15 19:05 112 16.1
2019-Jul-15 19:00 112 16.7
2019-Jul-15 18:55 112 17.2
2019-Jul-15 18:50 112 17.8
2019-Jul-15 18:45 090 17.8
2019-Jul-15 18:40 199 18.3
2019-Jul-15 18:35 170 0 gusting 1 18.3
2019-Jul-15 18:30 273 18.9
2019-Jul-15 18:25 274 18.9
2019-Jul-15 18:20 160 18.3
2019-Jul-15 18:15 135 18.9
2019-Jul-15 18:10 135 18.9
2019-Jul-15 18:05 181 18.9
2019-Jul-15 18:00 337 18.9
2019-Jul-15 17:55 337 18.3
2019-Jul-15 17:50 324 17.8
2019-Jul-15 17:45 323 17.8
2019-Jul-15 17:40 337 16.7
2019-Jul-15 17:35 051 17.2
2019-Jul-15 17:30 090 17.2
2019-Jul-15 17:25 323 16.1
2019-Jul-15 17:20 121 16.7
2019-Jul-15 17:15 180 16.7
2019-Jul-15 17:10 120 0 gusting 1 16.7
2019-Jul-15 17:05 123 0 gusting 1 16.1
2019-Jul-15 17:00 180 16.1
2019-Jul-15 16:55 149 16.1
2019-Jul-15 16:50 209 15.6
2019-Jul-15 16:45 133 15.6
2019-Jul-15 16:40 166 15.6
2019-Jul-15 16:35 112 0 gusting 1 15.6
2019-Jul-15 16:30 169 15.6
2019-Jul-15 16:25 180 15.6
2019-Jul-15 16:20 180 15.0
2019-Jul-15 16:15 137 15.0
2019-Jul-15 16:10 135 15.0
2019-Jul-15 16:05 125 0 gusting 1 15.0
2019-Jul-15 16:00 112 14.4
2019-Jul-15 15:55 127 15.0
2019-Jul-15 15:50 112 15.0
2019-Jul-15 15:45 157 15.0
2019-Jul-15 15:40 157 15.0
2019-Jul-15 15:35 144 15.0
2019-Jul-15 15:30 180 15.0
2019-Jul-15 15:25 180 14.4
2019-Jul-15 15:20 180 14.4
2019-Jul-15 15:15 178 14.4
2019-Jul-15 15:10 112 14.4
2019-Jul-15 15:05 112 14.4
2019-Jul-15 15:00 112 13.9
2019-Jul-15 14:55 112 14.4
2019-Jul-15 14:50 112 13.9
2019-Jul-15 14:45 112 13.9
2019-Jul-15 14:40 112 13.9
2019-Jul-15 14:35 112 13.9
2019-Jul-15 14:30 112 13.3
2019-Jul-15 14:25 112 13.9
2019-Jul-15 14:20 112 13.3
2019-Jul-15 14:15 112 12.8
2019-Jul-15 14:10 112 13.3
2019-Jul-15 14:05 112 13.3
2019-Jul-15 14:00 112 13.3
2019-Jul-15 13:55 112 13.3
2019-Jul-15 13:50 112 13.3
2019-Jul-15 13:45 112 13.3
2019-Jul-15 13:40 112 12.8
2019-Jul-15 13:35 112 12.2
2019-Jul-15 13:30 112 12.8
2019-Jul-15 13:25 112 12.8
2019-Jul-15 13:20 112 12.8
2019-Jul-15 13:15 112 12.8
2019-Jul-15 13:10 112 12.8
2019-Jul-15 13:05 112 12.8
2019-Jul-15 13:00 112 12.8
2019-Jul-15 12:55 112 12.2
2019-Jul-15 12:50 112 12.8
2019-Jul-15 12:45 112 12.2
2019-Jul-15 12:40 112 12.8
2019-Jul-15 12:35 112 13.3
2019-Jul-15 12:30 112 13.3
2019-Jul-15 12:25 112 13.3
2019-Jul-15 12:20 112 12.8
2019-Jul-15 12:15 112 13.3
2019-Jul-15 12:10 112 13.3
2019-Jul-15 12:05 112 13.3
2019-Jul-15 12:00 112 13.3
2019-Jul-15 11:55 112 13.9
2019-Jul-15 11:50 112 13.9
2019-Jul-15 11:45 112 13.3
2019-Jul-15 11:40 112 13.9
2019-Jul-15 11:35 315 13.9
2019-Jul-15 11:30 315 13.9
2019-Jul-15 11:25 315 13.9
2019-Jul-15 11:20 315 13.9
2019-Jul-15 11:15 315 13.3
2019-Jul-15 11:10 315 13.9
2019-Jul-15 11:05 315 13.9
2019-Jul-15 11:00 315 13.9
2019-Jul-15 10:55 315 13.9
2019-Jul-15 10:50 315 13.9
2019-Jul-15 10:45 315 13.9
2019-Jul-15 10:40 315 13.9
2019-Jul-15 10:35 315 13.3
2019-Jul-15 10:30 315 13.9
2019-Jul-15 10:25 315 13.9
2019-Jul-15 10:20 315 13.9
2019-Jul-15 10:15 315 13.9
2019-Jul-15 10:10 315 13.9
2019-Jul-15 10:05 315 13.9
2019-Jul-15 10:00 315 13.9
2019-Jul-15 09:55 315 13.3
2019-Jul-15 09:50 315 13.9
2019-Jul-15 09:45 315 13.9
2019-Jul-15 09:40 315 13.9
2019-Jul-15 09:35 315 13.3
2019-Jul-15 09:30 315 13.9
2019-Jul-15 09:25 315 13.9
2019-Jul-15 09:20 315 13.9
2019-Jul-15 09:15 315 13.9
2019-Jul-15 09:10 315 13.9
2019-Jul-15 09:05 315 13.9
2019-Jul-15 09:00 315 13.9
2019-Jul-15 08:55 315 14.4
2019-Jul-15 08:50 315 14.4
2019-Jul-15 08:45 315 14.4
2019-Jul-15 08:40 315 14.4
2019-Jul-15 08:35 315 15.0
2019-Jul-15 08:30 315 15.0
2019-Jul-15 08:25 315 14.4
2019-Jul-15 08:20 315 15.0
2019-Jul-15 08:15 315 15.0
2019-Jul-15 08:10 315 15.0
2019-Jul-15 08:05 292 15.6
2019-Jul-15 07:55 315 15.0
2019-Jul-15 07:50 317 15.6
2019-Jul-15 07:45 315 15.6
2019-Jul-15 07:40 315 15.6
2019-Jul-15 07:35 315 15.6
2019-Jul-15 07:30 315 15.0
2019-Jul-15 07:25 317 15.6
2019-Jul-15 07:20 291 15.6
2019-Jul-15 07:15 292 15.0
2019-Jul-15 07:10 292 15.0
2019-Jul-15 07:05 292 15.6
2019-Jul-15 07:00 289 15.6
2019-Jul-15 06:55 112 15.0
2019-Jul-15 06:50 337 15.6
2019-Jul-15 06:45 156 15.6
2019-Jul-15 06:40 157 15.6
2019-Jul-15 06:35 202 15.6
2019-Jul-15 06:30 202 15.6
2019-Jul-15 06:25 337 15.6
2019-Jul-15 06:20 185 15.6
2019-Jul-15 06:15 315 15.0
2019-Jul-15 06:10 315 15.6
2019-Jul-15 06:05 270 16.1
2019-Jul-15 06:00 315 15.6
2019-Jul-15 05:55 315 16.1
2019-Jul-15 05:50 315 16.1
2019-Jul-15 05:45 315 16.1
2019-Jul-15 05:40 315 16.1
2019-Jul-15 05:35 315 16.1
2019-Jul-15 05:30 315 16.1
2019-Jul-15 05:25 315 16.7
2019-Jul-15 05:20 315 16.7
2019-Jul-15 05:15 315 16.7
2019-Jul-15 05:10 315 16.7
2019-Jul-15 05:05 315 17.2
2019-Jul-15 05:00 315 17.2
2019-Jul-15 04:55 315 16.7
2019-Jul-15 04:50 315 17.2
2019-Jul-15 04:45 315 17.2
2019-Jul-15 04:40 315 17.8
2019-Jul-15 04:35 315 17.8
2019-Jul-15 04:30 315 17.8
2019-Jul-15 04:25 315 17.8
2019-Jul-15 04:20 315 17.8
2019-Jul-15 04:15 315 17.8
2019-Jul-15 04:10 315 18.3
2019-Jul-15 03:15 202 18.3
2019-Jul-15 03:10 202 18.3
2019-Jul-15 03:05 202 18.3
2019-Jul-15 03:00 202 18.3
2019-Jul-15 02:35 270 18.9
2019-Jul-15 02:30 270 18.9
2019-Jul-15 02:25 270 19.4
2019-Jul-15 02:20 270 18.9
2019-Jul-15 02:15 270 19.4
2019-Jul-15 02:10 180 18.9
2019-Jul-15 02:05 180 18.9
2019-Jul-15 01:30 337 18.9
2019-Jul-15 01:25 337 18.9
2019-Jul-15 01:20 337 18.9
2019-Jul-15 01:15 336 19.4
2019-Jul-15 01:10 320 18.9
2019-Jul-15 01:05 315 18.9
2019-Jul-15 01:00 315 18.9
2019-Jul-15 00:55 225 18.9
2019-Jul-15 00:50 225 18.9
2019-Jul-15 00:45 270 18.9
2019-Jul-15 00:40 270 18.3
2019-Jul-15 00:35 270 18.3
2019-Jul-15 00:30 270 18.3
2019-Jul-15 00:25 270 18.3
2019-Jul-15 00:20 270 18.9
2019-Jul-15 00:15 270 18.3
2019-Jul-15 00:10 270 18.9
2019-Jul-15 00:05 270 18.3
2019-Jul-15 00:00 315 18.9